Location: Grandview
(34.8900°N, 117.1058°W)
Time: 08:10:44
(UTC-07:00)

Tiangong 1 - Pass Details

Date: 14 October 2017
Orbit: 292 x 319 km, 42.8° (Epoch: 23 October)

Event Time Altitude Azimuth Distance (km) Brightness Sun altitude
Rises 18:32:02 0° 303° (WNW) 2,047 5.6 -4.4°
Reaches altitude 10° 18:34:19 10° 321° (NW) 1,210 4.1 -4.9°
Maximum altitude 18:36:28 21° 13° (NNE) 784 2.4 -5.3°
Drops below altitude 10° 18:38:35 10° 66° (ENE) 1,196 3.0 -5.7°
Enters shadow 18:39:08 - 72° (ENE) 1,377 3.2 -5.9°
